LFMP

Perpignan - Rivesaltes Airport

Airport
ICAO code
LFMP
IATA Code
PGF
Summary
ICAO Region
EUR
ICAO Territory
Location

Perpignan, Languedoc-Roussillon

Serving
Perpignan
Elevation
144 ft
Coordinates
42° 44' 41" N , 2° 52' 11" E
KCC
Metar
Observation
LFMP 282000Z AUTO 29017G29KT CAVOK 19/09 Q1005 TEMPO 30030G45KT
Station
Perpignan
Date/Time
2022-09-28 20:00:00
Wind direction
290°
Wind speed
17 kts
Lowest cloud amount
clouds and visibility OK
Temperature
19°C
Dew point
9°C
Humidity
52%
QNH
1005 hPa
Weather condition
n/a

Description

International airport serving Perginan.

Climatology

Dry-summer subtropical ”Mediterranean" climate (Köppen climate classification Csa) - characterized by hot, dry summers and mild winters. During the summer, subtropical high pressure cells dominate, making rainfall unlikely except for the occasional thunderstorm. In the winter, periodic storms bring rain (snow at higher elevations).

Runways

Designator Length Width Surface Rops
13/31 1265 20 ASP Yes/Yes
15/33 2500 45 ASP Yes/Yes

Airport map

Aerial View

SKYbrary Partners:

Safety knowledge contributed by: